Location: ?????
(35.9607°N, 43.7129°E)
Time: 17:04:24
(UTC+00:00)

Daily predictions for brighter satellites

Satellite Brightness Start Highest point End
(mag) Time Altitude Azimuth Time Altitude Azimuth Time Altitude Azimuth
BREEZE M DEB (TANK) 4.0 15:17:33 10° WNW 15:20:10 36° N 15:30:18 10° ENE
CZ-2C R/B 2.8 15:27:42 10° NNE 15:33:12 89° ESE 15:38:46 10° SSW
Geosat 4.5 15:28:15 10° NNE 15:33:14 67° WNW 15:38:12 10° SW
ISS -2.9 15:39:35 10° SSW 15:42:35 31° SE 15:45:36 10° ENE
Intelsat 5-1 Rocket 4.1 15:39:27 10° SW 15:42:48 24° SSE 15:49:23 10° ESE
H-2A R/B 2.7 15:38:32 10° S 15:43:21 58° W 15:48:19 10° NNW
OAO 2 Rocket 3.6 15:38:10 10° WSW 15:43:25 63° SSE 15:48:37 10° E
CZ-3B R/B 3.2 15:33:59 10° NW 15:43:39 46° NNE 15:46:52 10° ESE
Cosmos 1703 Rocket 4.2 15:39:34 10° NNW 15:44:00 63° W 15:48:22 10° S
H-2A R/B 3.6 15:41:12 10° W 15:45:53 16° SW 15:48:09 10° S
SL-4 R/B 3.3 15:43:52 10° NNW 15:46:35 21° NNE 15:49:17 10° E
Meteor 1-23 Rocket 4.3 15:43:22 10° N 15:49:05 65° E 15:54:41 10° SSE
Okean 1-7 4.1 15:47:57 10° NNW 15:52:12 50° W 15:56:26 10° SSW
Cosmos 1842 4.2 15:52:59 10° NNE 15:56:25 27° ENE 15:59:48 10° SE
YAOGAN 1 2.5 15:54:16 10° SSE 15:58:35 80° ENE 16:02:55 10° N
Cosmos 2221 Rocket 4.2 15:55:26 10° NNE 15:59:30 35° ENE 16:03:31 10° SE
COSMOS 2406 3.6 15:55:21 10° N 16:00:53 46° ENE 16:06:23 10° SE
Cosmos 540 Rocket 3.9 15:56:43 10° NNW 16:01:49 67° WSW 16:06:51 10° S
Cosmos 1932 4.4 15:57:42 10° SSW 16:03:54 65° ESE 16:10:06 10° NE
Cosmos 1833 Rocket 2.7 15:59:46 10° NNW 16:05:19 59° ENE 16:10:50 10° SE
Okean-O 2.7 16:02:29 10° SSE 16:06:49 56° ENE 16:11:09 10° N
Inspiration4 2.6 16:03:51 10° SW 16:08:07 82° SE 16:12:25 10° NE
HJ-1C 3.4 16:08:18 10° S 16:11:36 80° W 16:14:52 10° NNW
CSL-04 Rocket 3.8 16:09:35 10° SE 16:14:40 50° ENE 16:19:50 10° N
Cosmos 1674 Rocket 4.4 16:11:49 10° NNE 16:15:39 29° ENE 16:17:22 22° ESE
Cosmos 2082 Rocket 2.9 16:10:50 10° N 16:16:00 34° ENE 16:18:59 21° ESE
SL-08 RB Rocket 4.2 16:12:12 10° S 16:16:37 61° W 16:21:03 10° NNW
Cosmos 2181 Rocket 4.0 16:11:44 10° N 16:17:51 64° E 16:24:01 10° SSE
Lacrosse 4 Rocket 2.8 16:14:52 10° SW 16:18:39 39° WNW 16:22:28 10° N
Hubble Space Telescope 2.2 16:15:58 10° WSW 16:19:27 26° S 16:21:21 19° SE
Cosmos 1570 Rocket 4.0 16:14:06 10° NNW 16:19:27 80° ENE 16:24:44 10° SSE
USA 186 3.0 16:27:08 21° NNE 16:27:08 21° NNE 16:28:27 10° N
CZ-4B R/B 2.0 16:23:37 10° N 16:26:33 51° WNW 16:29:32 10° SSW
USA 276 1.9 16:25:36 10° SW 16:28:40 69° SE 16:29:26 45° ENE
BREEZE-M DEB (TANK) 4.0 16:28:00 10° N 16:28:48 14° NNE 16:28:48 14° NNE
MetOp-A 4.0 16:25:32 10° SSE 16:30:52 77° ENE 16:36:14 10° N
Cosmos 2278 Rocket 3.5 16:27:04 10° SW 16:32:24 42° WNW 16:37:46 10° N
Ariane Rocket 4.3 16:32:44 21° ENE 16:32:44 21° ENE 16:36:24 10° NNE
Okean 2 3.7 16:29:31 10° N 16:33:24 41° E 16:34:04 38° ESE
Cosmos 2297 4.0 16:29:54 10° S 16:35:12 43° ESE 16:40:33 10° NE
CZ-4 R/B 3.2 16:31:56 10° SSW 16:35:23 30° W 16:38:50 10° NW
Cosmos 1733 Rocket 3.5 16:31:13 10° SSW 16:35:30 62° W 16:39:47 10° N
Helios 1A Rocket 4.2 16:37:15 25° NE 16:37:15 25° NE 16:40:04 10° NNE
Cosmos 2184 Rocket 4.0 16:30:22 10° S 16:36:39 66° E 16:42:55 10° NNE
CSL-04 DEB 4.4 16:37:47 10° NNE 16:41:41 51° E 16:42:27 44° SE
Cosmos 1340 2.9 16:39:10 10° N 16:42:39 48° ENE 16:42:39 48° ENE
PSLV R/B 4.3 16:38:44 10° N 16:42:53 65° WNW 16:46:57 10° SSW
GOES 2 Rocket 4.2 16:39:29 10° WSW 16:45:13 38° S 16:46:40 32° SSE
SeaSat 1 2.4 16:45:48 24° SSE 16:48:47 83° WSW 16:53:44 10° NNW
Cosmos 1503 Rocket 4.0 16:43:52 10° S 16:48:58 56° ESE 16:54:04 10° NNE
Cosmos 2208 Rocket 4.3 16:45:18 10° NNW 16:50:29 66° WSW 16:54:51 15° S
COSMOS 2455 4.1 16:48:02 10° N 16:52:49 24° NE 16:53:16 24° ENE
USA 215 3.6 16:49:38 20° SSE 16:54:17 60° SW 17:00:47 10° NW
Cosmos 2154 Rocket 4.0 16:48:09 10° S 16:54:21 62° E 17:00:37 10° NNE
Cosmos 1610 Rocket 4.5 16:49:22 10° S 16:55:33 60° E 17:01:41 10° NNE
Cosmos 1354 Rocket 3.9 16:55:19 10° S 17:00:29 60° ESE 17:05:39 10° NNE
Cosmos 1943 Rocket 2.0 16:55:25 10° S 17:00:52 65° ESE 17:06:24 10° NNE
Cosmos 1238 Rocket 3.9 16:54:33 10° S 17:01:07 83° E 17:07:30 10° N
Cosmos 1295 Rocket 4.3 17:02:23 20° S 17:06:43 68° E 17:12:55 10° NNE
OBJECT-B 2.0 17:08:44 41° WNW 17:08:44 41° WNW 17:11:20 10° NNW
Cosmos 1707 3.0 17:05:32 10° N 17:08:56 64° NNW 17:08:56 64° NNW
BREEZE-M DEB (TANK) 4.2 17:09:25 10° WNW 17:12:03 18° WSW 17:12:16 18° SW
Meteor 1-12 Rocket 4.3 17:14:44 59° E 17:14:44 59° E 17:20:29 10° NNE
ISS -1.6 17:16:35 10° W 17:19:20 25° NW 17:19:20 25° NW
Cosmos 921 Rocket 4.5 17:16:18 10° NW 17:20:12 34° W 17:21:40 26° SW
USA 281 3.0 17:14:09 10° NNE 17:20:44 82° ESE 17:27:18 10° SSW
Nadezhda 3 Rocket 3.8 17:15:43 10° N 17:21:52 76° E 17:22:35 67° SE
Cosmos 1908 Rocket 4.3 17:20:37 27° SW 17:22:47 53° W 17:27:11 10° N
SEDSat Delta rocket 4.3 17:18:24 10° WSW 17:23:09 41° SSW 17:23:09 41° SSW
SL-4 R/B 3.6 17:22:49 10° WNW 17:24:50 29° W 17:24:50 29° W
OAO 2 Rocket 3.5 17:22:53 10° W 17:27:38 70° WSW 17:27:38 70° WSW
SJ-6B 4.0 17:28:44 41° W 17:28:47 41° W 17:32:41 10° NNW
Cosmos 1400 Rocket 4.1 17:31:47 41° WNW 17:31:47 41° WNW 17:35:18 10° N
Cosmos 2341 Rocket 4.5 17:33:51 46° NE 17:33:51 46° NE 17:38:24 10° NNE
ATLAS CENTAUR R/B 3.9 17:39:41 10° N 17:41:01 16° N 17:41:01 16° N
Atlas Centaur 2 4.1 17:39:17 10° SW 17:43:46 27° SSW 17:43:46 27° SSW
Resurs 01 Rocket 3.9 18:02:48 20° NNW 18:02:48 20° NNW 18:04:15 10° NNW
Cosmos 2082 Rocket 3.7 17:55:03 10° NW 17:59:55 30° WSW 18:00:51 28° WSW
COSMOS 2455 4.4 18:33:12 10° NW 18:36:24 31° NW 18:36:24 31° NW
Cosmos 2360 Rocket 4.3 23:12:13 21° NE 23:12:13 21° NE 23:14:06 10° NNE
Cosmos 2344 4.4 23:08:24 10° NNW 23:18:24 85° ENE 23:32:31 10° SSE
Cosmos 2219 Rocket 3.9 23:32:01 27° ENE 23:32:01 27° ENE 23:35:20 10° NE
SL-16 R/B 4.3 23:39:54 18° N 23:39:54 18° N 23:41:27 10° N
USA 229 DEB 4.2 23:47:33 49° E 23:47:33 49° E 23:53:06 10° NE
USA 229 4.2 23:47:37 49° E 23:47:37 49° E 23:53:12 10° NE
COSMOS 2428 4.0 23:48:26 35° E 23:48:26 35° E 23:53:01 10° NE
